Torna al catalogo

STARLINK-35370

AttivoComunicazioniVLEO
NORAD 66085·PAYLOAD·🇺🇸 United States

Lanciato Oct 19, 2025 da Cape Canaveral Space Force Station

Loading…

Prossimi Passaggi (prossime 24 ore)

TLE

AggiornatoSource: CelesTrak SupGP

Epoca: Sep 14, 2026, 14:52 UTC

1 66085C 25235AD  26257.61993056 -.00012355  00000+0 -36526-3 0  2572
2 66085  53.1596  86.9533 0001314  91.0507  70.4752 15.34377972    15

Traccia STARLINK-35370 in tempo reale con AllMySat

Download on the App Store